RH
66 67 68 69 71 73 75 79 82 85 85 86 89 93 98 99 99 98 96 92 94 98 99 99 99 100 99 97 92 87 85 86 89 92 94 94 93 91 87 78 70 67 71 79 82 85 90 92 93 96 98 98 98 98 98 99 99 98 97 97 97 97 97 96 96 96 98 97 96 96 96 96 97 98 100 100 100 100 100 99 98 97 99 100 99 98
67 68 69 72 75 79 81 86 91 93 93 93 95 97 99 99 99 99 98 96 96 97 99 99 99 99 99 96 91 87 84 83 85 87 91 92 93 92 90 79 70 64 69 78 82 85 89 92 94 96 98 99 98 98 98 100 100 100 99 99 98 98 98 98 97 96 96 96 96 96 96 97 97 98 99 100 100 100 100 99 98 97 99 100 100 99
70 71 71 76 81 86 89 94 97 99 99 99 99 100 100 100 99 99 99 99 98 98 98 98 97 97 97 94 92 89 84 81 80 82 88 89 91 93 92 83 72 65 67 76 81 84 88 92 94 96 98 98 99 98 98 99 100 100 100 100 99 99 99 99 99 98 97 97 97 98 97 98 98 99 99 100 100 100 100 99 97 96 99 100 100 100
73 73 74 81 87 92 95 98 98 99 99 100 100 100 100 100 100 100 99 100 99 99 99 97 96 95 94 92 90 88 84 80 76 76 83 86 88 91 93 88 78 70 68 74 79 83 87 91 92 93 95 97 97 97 97 99 100 100 100 100 100 100 100 100 100 99 99 99 98 98 98 98 99 99 100 100 100 100 100 100 97 95 98 99 100 100
74 76 78 86 91 94 96 98 98 98 98 99 100 100 100 99 99 99 98 99 99 99 100 99 98 97 95 95 93 90 85 81 76 72 74 81 85 88 92 91 86 78 74 75 78 82 87 90 91 90 90 93 95 95 96 98 100 100 100 100 100 100 100 100 100 100 100 100 99 99 99 98 99 99 99 99 99 100 100 100 99 98 98 98 99 99
76 78 83 89 92 94 96 97 97 97 97 98 99 99 99 98 96 96 95 96 97 97 98 99 99 99 98 98 97 94 88 85 77 69 66 72 79 84 88 92 92 88 84 81 81 83 87 89 89 89 87 89 91 93 95 98 99 100 100 100 100 100 100 100 100 100 100 100 99 99 99 98 98 97 97 97 98 99 100 100 100 99 99 97 97 98
78 80 86 89 92 93 94 95 96 97 97 98 98 99 98 96 93 92 92 94 94 94 95 97 98 99 99 99 99 97 92 87 78 69 63 65 71 78 83 89 92 94 91 89 88 89 89 88 88 88 87 87 89 92 95 98 99 100 100 100 100 100 100 100 100 100 100 99 99 99 98 97 96 95 94 94 95 97 99 100 100 99 99 96 96 96
79 80 84 87 89 90 90 91 93 96 96 97 98 97 96 95 92 90 90 92 92 92 92 94 96 98 99 99 98 96 93 89 81 71 66 66 69 73 78 83 89 94 95 95 95 95 92 89 88 88 88 87 89 93 96 98 99 99 100 100 100 100 100 100 100 100 100 99 99 98 97 95 94 93 92 92 94 95 98 99 100 100 99 96 95 96
79 81 83 86 88 89 88 89 91 94 96 97 97 96 94 95 93 91 89 90 91 91 91 92 94 96 98 96 93 90 88 88 84 79 74 75 77 78 77 78 83 90 95 97 98 98 96 92 90 89 88 88 90 93 96 97 98 99 100 100 100 100 100 100 100 100 100 99 98 97 96 94 93 92 92 93 93 94 96 98 99 100 100 97 96 97
79 80 82 84 86 88 89 89 91 93 95 96 96 94 92 93 93 92 91 91 91 91 90 91 92 93 94 92 89 85 82 82 83 82 80 83 83 81 79 73 76 83 91 95 97 98 98 95 92 90 89 89 91 94 96 98 98 99 99 100 100 100 100 100 100 100 100 99 99 97 96 94 93 92 92 94 94 94 95 97 98 99 100 99 98 98
77 79 81 82 83 85 88 90 91 92 93 92 90 89 88 90 91 91 89 90 90 91 90 89 90 91 92 91 89 88 85 82 81 81 81 82 82 80 76 70 71 78 86 92 95 96 97 95 92 90 90 91 93 96 98 98 99 99 99 100 100 100 100 100 100 100 100 100 99 98 97 95 93 92 92 93 94 94 94 96 97 99 100 99 99 98
76 78 80 81 80 81 83 86 88 88 87 85 84 83 83 87 90 91 89 88 89 90 90 88 88 89 92 94 95 95 94 92 89 85 81 82 82 81 79 73 72 74 81 89 93 94 95 92 89 88 89 92 96 98 99 99 99 100 100 100 100 100 100 100 100 100 100 100 100 99 98 96 94 93 92 92 93 94 94 95 97 99 100 99 99 98
75 77 79 79 79 79 80 82 82 81 80 81 81 82 82 85 88 89 89 88 88 88 90 89 88 88 92 96 98 99 99 99 98 95 87 86 85 86 87 83 80 78 80 87 92 94 94 90 87 86 89 94 97 98 96 95 97 99 100 100 100 100 100 100 100 100 100 100 100 100 99 97 96 94 92 91 91 92 94 95 97 99 99 99 99 98
75 76 76 76 76 77 79 79 79 78 78 80 82 83 83 84 85 86 86 86 86 87 89 90 90 90 93 97 99 99 99 100 99 97 91 90 90 92 93 93 91 88 85 89 94 96 95 91 88 87 89 94 96 95 91 89 92 96 99 100 100 100 100 100 100 100 100 100 100 100 99 98 96 94 92 90 89 89 91 94 96 98 99 99 98 96
76 76 75 74 75 76 78 79 78 78 79 81 83 83 83 83 84 84 84 84 85 86 87 88 89 91 95 98 99 98 99 99 97 94 90 90 92 94 95 97 97 96 93 95 96 97 96 93 90 88 89 93 94 92 86 83 84 88 96 99 100 100 100 100 100 100 100 100 100 100 100 98 96 94 92 90 89 88 88 91 95 97 98 98 96 94
77 77 75 74 75 76 77 79 79 80 80 81 82 83 83 83 83 84 83 84 84 85 84 84 85 88 94 98 97 95 94 96 97 95 92 88 89 91 92 96 98 99 99 99 98 98 97 94 90 88 88 89 90 89 84 78 76 79 88 95 99 100 100 100 100 100 100 100 100 100 100 99 97 95 93 91 89 87 86 89 92 95 96 96 95 93
78 78 77 75 75 76 78 81 81 81 82 82 82 83 84 84 84 84 83 82 83 83 82 82 83 86 90 91 93 93 87 92 96 97 95 89 87 88 89 94 98 99 99 100 99 99 98 96 92 88 86 85 85 84 83 78 74 73 78 86 94 98 100 100 100 100 100 100 100 100 99 99 99 98 96 94 91 88 86 88 90 93 94 94 94 94
79 79 80 79 78 79 81 83 83 83 84 82 83 84 85 84 83 83 82 82 82 81 81 81 81 82 86 87 89 90 83 89 95 98 97 91 86 84 86 91 96 98 97 97 98 99 100 98 95 90 87 85 84 82 80 77 73 71 71 77 85 93 99 100 100 100 100 100 99 99 99 100 100 99 99 97 94 91 88 89 90 92 93 93 94 96
80 81 82 82 82 82 83 85 86 85 84 85 86 87 86 83 81 81 81 81 81 81 81 81 81 81 82 85 87 87 82 87 94 98 99 95 87 82 85 88 93 97 97 93 93 96 100 100 97 94 90 87 85 83 81 79 76 73 70 71 76 84 96 99 100 100 100 100 99 99 99 100 100 100 100 99 97 95 92 91 92 92 93 94 95 97
83 83 85 86 87 86 86 88 89 89 88 89 91 91 88 83 81 80 80 81 81 81 82 82 81 82 83 85 86 85 82 88 94 99 100 96 89 83 84 88 94 98 97 90 88 90 95 99 99 97 94 90 87 83 81 80 78 75 71 70 71 76 87 96 99 100 100 100 99 99 99 100 100 100 100 99 99 98 96 95 94 94 94 95 97 98
86 85 88 91 91 90 88 90 90 90 90 93 94 94 90 84 81 80 80 81 82 82 82 82 82 84 86 89 88 85 82 91 96 98 100 98 92 86 83 88 93 95 93 88 87 88 90 95 98 99 98 93 88 83 79 78 77 76 72 70 70 73 79 90 96 100 100 100 100 100 100 100 100 100 100 99 99 99 98 96 95 95 96 97 98 99
90 90 91 93 93 93 92 93 93 91 90 94 95 94 90 86 83 82 82 83 83 83 83 84 85 88 91 92 88 84 84 93 97 98 100 98 94 88 81 86 89 91 92 87 85 86 89 91 94 97 99 95 89 82 77 75 74 74 72 71 70 71 75 85 93 98 100 100 100 100 100 100 100 100 100 99 99 98 98 96 96 96 96 97 98 98
92 92 93 93 93 93 94 94 94 93 92 95 96 96 94 92 89 87 86 87 87 87 87 89 90 92 94 92 88 86 90 96 98 99 100 96 93 88 81 85 87 89 91 86 83 83 88 89 91 94 99 96 90 82 76 72 71 71 72 71 70 71 72 80 89 96 99 100 100 100 100 100 100 100 100 99 99 98 97 97 97 97 97 98 98 98
91 92 93 93 93 94 94 94 94 94 95 95 95 95 95 94 93 92 92 92 92 91 91 92 91 91 92 90 89 90 94 98 99 99 100 98 94 90 87 89 90 90 87 84 82 82 85 89 90 92 97 97 91 83 74 70 69 69 71 71 71 71 71 76 86 95 99 100 100 100 100 100 100 100 100 100 100 99 98 98 98 98 98 99 99 98
91 91 92 93 93 94 94 94 94 94 95 95 95 95 94 92 91 91 93 93 92 90 89 88 87 86 86 87 88 91 97 99 100 100 100 99 97 95 95 96 96 94 87 83 82 82 83 88 90 92 94 97 94 86 74 67 66 67 70 71 71 71 71 75 84 94 99 100 100 100 100 100 100 100 100 100 100 100 100 100 99 99 98 99 99 99
91 91 92 92 93 93 93 94 94 94 95 95 95 95 94 92 90 90 90 89 88 87 85 83 82 82 83 85 86 88 92 96 99 100 100 100 98 96 98 97 97 95 90 87 85 84 84 87 91 94 93 95 95 91 81 70 65 65 69 71 72 72 72 75 83 92 99 100 100 100 100 100 100 100 100 100 100 100 100 100 99 99 98 98 98 98
91 92 92 92 92 93 93 93 93 94 94 95 95 95 94 92 90 88 83 84 85 85 82 79 79 80 81 82 83 84 87 94 97 99 99 100 99 98 97 95 96 96 95 94 92 89 87 90 94 96 95 95 96 96 93 80 71 66 69 71 73 73 72 75 82 90 98 99 100 99 100 100 100 100 100 100 100 100 100 100 100 99 97 97 98 98
90 91 91 92 91 91 91 91 92 93 94 94 94 94 93 92 90 87 84 86 86 85 81 79 78 79 79 80 81 83 86 95 98 98 98 99 99 99 98 97 97 98 99 98 96 92 89 93 97 99 97 95 96 97 99 92 83 75 71 72 73 74 74 76 81 89 97 99 99 99 99 100 100 100 100 100 100 100 100 100 100 100 99 98 98 98
85 87 87 88 88 88 88 87 89 91 92 93 94 94 93 93 91 90 89 90 88 85 81 79 78 79 79 80 81 84 88 96 98 97 97 98 99 99 99 99 99 99 100 99 97 95 94 97 99 100 99 95 94 96 99 98 95 88 80 78 77 76 76 77 81 88 97 98 99 98 99 100 100 100 100 100 100 100 100 100 100 100 100 99 99 99
83 83 82 83 84 84 84 84 86 89 91 92 93 93 93 93 93 92 92 92 90 86 83 80 80 80 80 80 80 84 93 97 97 96 95 97 98 99 99 100 100 100 100 99 97 96 97 98 99 100 99 94 93 95 99 99 99 97 92 88 85 82 80 79 83 88 96 99 99 99 99 100 100 100 100 100 100 100 100 100 100 100 100 100 100 100
84 84 82 82 81 82 83 85 86 88 90 91 91 92 92 92 92 92 93 93 91 89 87 84 83 82 81 79 79 83 93 96 96 95 93 96 97 98 99 99 99 99 99 99 98 97 96 98 99 100 98 94 92 94 99 99 99 99 99 97 95 91 86 84 86 90 97 99 100 99 100 100 100 100 100 100 100 100 100 100 100 100 100 100 100 100
84 83 82 82 81 82 83 84 86 88 89 89 90 91 91 92 92 92 92 93 93 92 91 89 87 85 83 81 81 82 85 89 91 92 93 95 97 97 97 98 99 99 100 100 99 99 97 98 99 100 99 95 94 96 100 98 98 99 100 100 99 96 94 92 93 95 99 100 100 100 100 100 100 100 100 100 100 100 100 100 100 100 100 100 100 100
83 82 81 81 80 81 82 83 85 87 88 89 90 90 91 91 92 92 92 92 93 93 93 92 89 87 85 84 83 82 83 86 88 90 93 95 96 97 97 97 98 99 100 100 100 99 98 98 99 100 100 99 98 99 100 98 98 99 100 100 100 99 98 98 98 99 100 100 100 100 100 100 100 100 100 100 100 100 100 100 100 100 100 100 100 100
81 81 80 79 79 79 81 82 84 86 87 88 89 90 91 91 91 92 92 92 92 93 93 93 92 90 88 86 84 84 84 88 89 89 92 95 96 96 96 97 97 98 100 100 100 99 98 97 98 100 100 100 100 100 100 99 99 99 100 100 100 100 100 100 100 100 100 100 100 100 100 100 100 100 100 100 100 100 100 100 100 99 99 99 100 100
80 79 79 78 78 78 79 81 82 84 86 88 89 90 90 91 91 92 92 92 92 92 93 93 93 93 92 90 88 87 88 89 88 88 92 94 95 96 96 96 97 98 99 100 100 100 99 98 98 100 99 99 100 100 100 100 100 100 100 100 100 100 100 100 100 100 100 100 100 100 100 100 100 100 100 100 100 100 100 100 99 99 98 99 99 99
78 78 78 78 78 78 78 79 81 83 85 87 88 89 90 91 91 91 92 92 92 92 93 93 93 93 94 93 92 92 93 91 90 91 94 95 95 95 95 96 96 97 98 99 99 100 100 99 99 99 98 99 99 100 100 100 100 100 100 100 100 100 100 100 100 100 100 100 100 100 100 100 100 100 100 100 100 100 100 100 99 99 98 97 97 98
76 76 77 77 77 77 78 79 80 82 85 86 88 89 90 90 91 91 92 92 92 92 93 93 93 94 94 94 94 94 94 94 94 95 96 96 96 95 95 96 96 96 97 98 99 100 100 99 99 99 98 98 99 100 100 100 100 100 100 100 100 100 100 100 100 100 100 100 100 100 100 100 100 100 100 100 100 100 100 100 100 100 99 99 98 98
75 76 77 78 78 78 78 79 81 83 85 87 88 89 90 90 91 92 92 92 92 92 93 93 93 94 94 94 94 95 95 95 95 96 97 97 96 96 96 96 96 96 97 97 98 99 99 99 99 99 99 99 99 100 100 100 100 100 100 100 100 100 100 100 100 100 100 100 100 100 100 100 100 100 100 100 100 100 100 100 100 100 100 100 100 99
75 76 77 78 79 79 80 81 82 84 86 87 88 89 90 91 91 92 92 92 92 93 93 93 93 93 94 94 94 96 96 96 96 97 97 97 97 97 97 97 97 96 96 97 98 99 99 99 98 97 97 98 99 100 100 100 100 100 100 100 100 100 100 100 100 100 100 100 100 100 100 100 100 100 100 100 100 100 100 100 100 100 100 100 100 100
76 77 78 79 80 81 82 83 84 86 87 87 88 89 89 90 90 91 92 92 92 93 93 93 93 93 93 93 94 96 97 97 97 97 98 98 98 98 98 97 97 97 96 98 99 99 99 99 97 96 95 96 98 99 100 100 100 100 100 100 100 100 100 100 100 100 100 100 100 100 100 100 100 100 100 100 100 100 100 100 100 100 100 99 99 100
78 78 79 80 81 82 83 84 85 86 86 87 87 87 88 89 91 91 91 91 91 91 91 92 91 90 90 92 93 95 97 97 97 98 98 99 99 99 99 98 97 96 96 98 99 99 99 98 98 96 96 96 97 99 99 100 100 100 99 99 99 100 100 100 100 100 100 100 100 100 100 100 100 100 100 100 100 100 100 100 100 100 100 99 99 100
80 80 81 82 82 83 83 84 85 85 85 86 86 87 88 89 90 90 90 90 90 90 92 92 91 89 88 89 91 94 96 97 98 99 99 100 100 100 99 99 98 97 97 98 99 99 99 99 99 98 98 97 97 98 99 100 100 100 99 99 100 100 100 100 100 100 100 100 100 100 100 100 100 100 100 100 100 100 100 100 100 100 100 99 99 99
80 81 82 82 83 83 83 84 84 84 85 85 86 87 88 89 90 91 90 89 89 89 90 90 90 89 88 88 89 90 93 96 98 99 100 100 100 100 100 100 99 97 96 98 99 99 99 99 100 100 100 98 97 98 99 100 100 100 100 100 100 100 100 100 100 100 100 100 100 100 100 100 100 100 100 100 100 100 100 100 100 100 100 100 100 99
81 82 82 82 82 82 82 83 83 84 84 85 85 86 87 89 90 91 89 89 89 89 89 90 89 88 87 87 88 89 90 93 96 98 99 100 100 100 100 100 99 97 96 98 99 99 99 99 99 100 100 98 98 98 99 99 100 100 100 99 99 98 99 99 100 100 100 100 100 100 100 100 100 100 100 100 100 100 100 100 100 100 100 100 100 100
82 82 82 82 82 82 81 82 82 83 83 84 85 86 86 88 90 90 89 89 88 88 89 89 88 86 85 87 88 89 89 91 94 96 98 99 99 100 100 99 98 98 99 99 99 99 99 99 100 100 100 99 98 98 99 99 100 100 100 100 99 99 99 100 100 100 100 100 100 100 100 100 100 100 100 100 100 100 100 100 100 100 100 100 100 100
82 82 82 82 82 81 81 82 82 82 82 83 84 85 86 88 89 90 89 88 87 87 87 88 87 86 85 87 88 89 89 90 92 94 97 98 99 99 100 99 97 97 99 99 99 99 99 100 100 100 100 99 99 99 100 100 100 100 100 100 100 100 100 100 100 100 100 100 100 100 100 100 100 100 100 100 100 100 100 100 100 100 100 100 100 100
82 82 82 83 82 82 82 82 82 82 81 82 83 85 86 87 88 89 89 88 87 87 87 87 86 86 86 87 88 89 89 90 91 93 95 97 98 98 99 99 98 98 99 99 99 99 99 99 99 99 98 98 99 99 100 100 100 100 100 100 100 100 100 100 100 100 100 100 100 100 100 100 100 100 100 100 100 100 100 100 100 100 100 100 100 100
83 83 84 84 83 83 82 82 82 82 81 82 83 85 85 86 88 89 89 88 87 86 85 86 85 85 86 87 89 90 90 91 92 93 94 96 97 97 98 98 98 98 98 98 98 98 98 97 98 98 98 98 98 99 100 100 100 100 100 100 100 100 100 100 100 100 100 100 100 100 100 99 99 100 100 100 100 100 100 100 100 100 100 100 100 100
83 84 86 85 84 84 84 83 83 83 81 82 84 85 85 85 87 88 89 88 86 85 85 85 85 85 86 87 88 90 91 91 92 93 94 95 96 97 97 97 97 98 98 98 97 96 95 94 95 96 97 98 99 99 99 99 99 100 100 100 100 100 100 100 100 100 100 100 100 100 100 99 99 99 99 99 100 100 100 100 100 100 100 100 100 100
84 85 88 87 86 85 85 85 85 84 83 84 85 85 85 85 86 87 88 87 85 84 84 85 85 86 86 87 88 89 90 91 91 93 94 95 95 95 96 97 97 98 98 98 96 94 92 92 93 94 96 96 97 98 99 99 99 99 100 100 100 100 100 100 100 99 100 100 100 100 100 100 99 99 99 99 99 100 100 100 100 100 99 99 100 100
84 86 88 88 87 86 86 86 86 86 84 85 85 85 84 84 85 86 87 86 85 84 84 84 85 86 87 88 89 90 91 91 91 92 94 94 95 95 94 96 97 98 98 96 94 91 89 89 90 91 93 94 96 97 98 98 99 99 99 99 99 99 100 100 100 99 100 100 100 100 100 100 99 99 98 98 99 100 100 100 100 100 100 100 100 100
Wind_Speed
17 18 18 19 19 20 20 20 20 19 18 18 18 18 18 15 14 13 14 13 13 12 10 8 7 7 8 8 8 7 6 6 5 4 3 6 10 13 14 15 15 15 16 16 16 15 15 17 19 19 18 17 17 17 17 16 17 18 20 22 25 27 29 30 29 28 28 27 27 27 27 27 28 31 34 34 33 32 33 33 33 34 34 35 35 36
18 18 17 17 18 18 19 19 19 17 16 16 16 16 15 15 14 13 13 12 12 11 10 8 8 8 9 9 8 6 5 5 5 5 3 2 7 10 13 14 15 16 16 17 17 16 16 18 20 20 18 18 19 19 18 17 16 16 18 20 23 25 28 30 31 30 29 29 29 29 29 29 29 30 33 34 34 34 35 34 34 34 34 35 36 36
17 16 16 16 17 17 18 19 18 16 15 13 13 13 14 13 12 12 11 10 9 9 9 9 9 9 9 8 6 4 3 3 4 5 4 1 3 7 10 13 14 15 16 18 18 17 17 18 20 20 18 18 19 19 19 18 16 16 17 19 21 23 26 29 31 32 32 31 31 31 31 31 31 32 32 32 31 33 35 35 34 34 33 34 35 35
15 15 15 16 16 17 18 18 18 17 14 12 11 11 11 10 9 9 8 8 7 7 8 8 9 9 8 5 3 1 1 2 2 3 3 2 0 3 7 11 13 15 17 18 19 18 18 19 20 20 19 18 19 20 20 18 17 16 16 18 20 22 25 28 30 32 33 33 33 33 32 32 32 32 32 30 28 28 31 33 34 34 33 32 33 34
14 13 14 15 16 16 17 17 17 18 16 13 11 10 10 9 8 7 6 6 5 5 6 6 7 7 6 4 2 1 1 0 0 1 1 1 1 0 4 8 12 15 16 18 19 20 20 20 20 20 19 19 19 20 20 19 17 16 17 18 20 22 24 26 29 31 32 33 33 33 33 33 32 32 31 29 27 26 27 31 34 34 33 31 31 31
13 13 14 14 14 15 15 15 16 17 18 15 13 11 11 10 8 7 7 6 6 5 5 5 6 6 6 5 2 0 1 1 1 1 1 1 1 1 2 5 10 13 15 17 19 20 21 21 20 20 19 19 20 21 21 20 19 17 17 19 20 22 23 25 27 29 30 31 32 32 32 32 32 31 30 29 28 27 27 30 33 35 34 32 31 30
13 12 13 13 14 14 13 13 14 16 17 15 13 12 11 11 10 9 8 8 8 7 6 4 4 4 5 5 3 1 1 2 2 2 2 3 3 2 1 3 7 11 14 16 18 19 20 21 20 19 18 19 21 22 22 21 20 19 18 19 21 22 23 24 25 27 28 29 30 31 31 31 31 31 30 29 29 29 29 30 32 33 34 33 32 31
12 13 13 13 13 13 12 12 13 15 17 15 13 12 11 12 12 11 10 9 9 9 9 6 4 2 0 1 2 1 1 1 2 3 3 3 4 3 2 2 5 9 12 15 16 17 18 20 20 19 18 19 21 22 22 22 21 20 20 20 21 22 23 24 25 26 27 29 30 30 31 31 31 31 31 30 31 31 32 31 31 32 33 34 33 33
12 12 12 12 12 12 12 12 13 15 16 14 12 11 11 12 13 13 12 11 11 11 11 11 9 5 4 4 4 3 2 1 2 2 2 2 3 3 3 2 4 8 11 13 13 14 17 19 20 20 19 19 20 22 22 22 22 22 22 22 22 23 24 24 25 25 27 29 30 31 31 31 32 32 32 31 32 33 33 33 32 32 33 34 34 34
11 11 11 12 11 11 10 11 13 15 16 13 10 9 10 12 13 13 13 13 13 13 13 13 11 8 5 4 4 3 2 1 2 2 2 1 1 2 3 3 4 7 10 11 12 12 15 18 21 21 20 19 19 19 20 20 21 22 23 24 24 24 25 25 26 26 27 29 30 31 32 32 32 32 32 32 32 33 35 35 34 33 33 35 35 35
11 11 11 11 11 10 10 11 12 14 14 12 9 8 9 11 12 12 12 12 13 14 14 13 11 8 5 3 3 2 1 0 1 2 1 1 1 2 2 2 4 7 10 12 12 11 13 17 20 21 20 18 16 16 16 18 20 22 23 24 25 25 26 26 27 27 27 29 30 32 32 33 33 33 33 33 33 34 35 36 35 34 34 35 36 36
10 10 10 10 10 10 10 10 11 12 12 11 9 8 10 11 12 12 11 11 12 14 15 14 11 7 5 3 2 2 2 2 2 1 0 0 1 2 2 2 3 7 10 12 12 12 12 15 18 20 19 17 15 13 13 15 17 20 21 22 23 25 26 27 27 28 28 29 30 31 32 33 33 33 33 33 33 34 35 36 37 36 35 35 36 37
10 9 9 9 9 9 10 10 10 11 11 11 10 9 10 11 12 12 11 11 12 13 14 14 12 8 4 4 4 5 5 4 3 1 1 2 2 2 3 2 2 4 8 11 12 13 12 14 17 19 19 18 16 14 13 13 15 17 19 19 21 23 24 26 27 27 27 28 29 31 32 32 33 33 33 33 33 34 35 36 37 36 35 35 36 37
10 10 9 9 9 9 9 10 10 10 11 11 11 11 11 11 12 11 11 11 12 12 13 13 13 11 7 4 4 5 5 3 1 1 2 3 4 4 4 3 2 2 6 8 11 13 14 14 16 19 20 19 18 17 15 14 14 15 18 17 20 22 22 23 24 25 26 27 28 29 30 31 32 32 32 33 33 34 35 36 37 36 35 35 36 36
10 9 8 8 8 9 9 10 10 11 11 12 12 12 12 11 11 10 10 11 12 12 12 12 12 11 7 4 5 6 7 5 3 2 3 4 5 5 5 5 3 2 3 5 8 12 16 16 16 19 21 21 20 19 18 15 14 14 15 16 18 20 21 20 21 23 24 25 26 28 29 29 30 30 31 32 33 34 36 36 36 36 35 35 35 35
9 9 8 8 8 9 10 10 10 11 12 13 13 12 11 11 10 10 10 10 11 11 11 10 9 7 4 3 6 9 10 9 6 4 2 2 5 6 6 6 5 3 2 3 5 10 15 16 17 18 20 21 20 20 20 17 15 14 14 14 15 17 20 18 19 21 23 24 25 26 27 27 27 28 29 30 32 34 36 36 36 35 35 35 35 35
9 9 9 9 9 10 11 11 11 11 12 13 13 12 11 10 9 9 9 9 10 9 8 7 5 3 2 3 6 10 13 13 10 7 5 2 2 6 6 6 5 4 3 2 3 6 10 15 17 18 20 20 20 20 20 18 16 15 15 15 15 16 17 16 18 20 22 23 24 24 25 24 24 25 27 28 31 33 35 36 36 36 35 35 36 36
9 9 9 9 9 10 11 11 11 11 12 13 14 13 12 10 9 8 8 8 8 8 8 7 5 3 2 3 5 9 15 15 13 10 8 6 2 3 6 6 5 4 4 3 2 3 6 11 15 18 20 20 20 19 19 18 17 15 15 15 16 16 16 16 17 19 22 22 23 24 24 23 23 24 26 28 30 32 34 35 36 36 36 37 37 37
9 9 9 9 10 11 11 10 10 11 12 13 14 14 12 11 10 9 8 8 7 7 7 7 6 6 6 6 9 12 16 15 14 11 10 9 5 2 4 5 5 4 4 4 3 2 4 7 11 16 19 20 20 20 19 18 17 16 15 15 15 16 18 17 17 18 21 22 23 23 24 23 23 24 25 27 29 32 33 34 35 35 36 37 38 38
9 9 9 10 11 11 11 10 10 11 13 14 14 14 12 11 10 9 9 8 8 8 8 8 8 8 9 10 12 14 16 15 13 10 9 10 7 3 2 4 4 3 3 4 4 2 4 6 8 12 17 19 20 21 20 18 17 16 15 15 15 15 17 18 18 19 20 21 23 24 24 24 24 24 25 27 29 31 32 33 34 35 36 37 38 38
9 9 10 11 11 11 10 10 12 13 14 15 15 14 11 11 11 10 10 10 9 9 8 8 9 10 10 12 14 16 15 13 10 7 5 6 6 5 1 2 3 3 3 4 4 2 2 6 8 10 14 17 19 21 20 19 18 16 16 16 15 15 16 17 19 20 20 21 23 24 25 24 24 25 25 27 29 30 32 33 33 34 35 36 36 35
10 10 11 12 12 12 12 12 13 13 14 15 14 12 10 10 11 11 11 11 10 9 9 9 11 12 14 16 18 17 13 11 8 5 3 3 5 6 3 2 3 3 4 4 4 3 1 4 8 11 13 15 18 20 21 20 18 17 16 16 16 16 16 17 19 20 20 21 23 25 25 25 25 25 25 26 28 29 31 32 32 33 33 33 33 33
11 12 12 12 12 13 13 13 12 12 13 14 13 11 10 10 10 11 12 11 11 10 11 12 13 14 15 17 17 15 11 8 7 5 4 3 5 6 4 4 4 4 3 4 4 4 2 1 5 9 12 14 17 19 20 20 19 17 17 17 17 18 17 18 19 20 21 21 23 25 26 25 25 25 25 26 26 28 29 30 30 31 31 32 32 31
12 13 13 13 13 13 13 13 12 12 12 13 13 11 10 10 11 11 12 11 11 11 11 12 12 13 13 14 13 11 8 7 5 4 4 3 5 7 6 5 5 4 4 4 4 4 4 1 3 7 10 13 16 19 21 21 20 18 17 18 18 19 19 19 20 22 23 23 23 25 27 27 26 25 25 25 25 26 27 28 28 28 29 30 30 30
13 13 13 13 13 14 14 13 12 12 13 14 13 12 11 12 12 11 11 10 10 10 10 9 9 9 9 9 8 7 6 5 5 5 5 4 5 7 7 6 5 5 5 4 4 5 5 3 1 5 9 11 14 18 21 22 21 19 18 18 19 20 21 21 21 23 25 24 24 26 28 29 28 26 25 25 25 25 25 26 27 27 27 28 29 29
13 13 13 14 14 14 13 13 12 11 12 13 13 12 12 12 11 10 8 8 9 9 9 8 7 7 7 6 5 5 5 5 6 6 6 6 6 7 7 7 6 6 6 5 5 6 6 4 2 4 7 10 13 15 18 21 22 20 18 18 20 21 22 22 23 24 26 27 26 26 28 30 30 28 26 23 23 24 25 26 28 28 28 28 28 28
13 14 14 14 14 13 13 12 11 11 11 12 12 12 12 11 9 8 7 8 9 10 9 7 5 5 6 5 5 5 7 7 8 9 9 7 6 6 7 8 7 7 7 6 6 6 6 5 3 4 7 10 12 13 14 18 20 20 19 19 20 22 23 23 23 25 27 29 28 27 28 30 31 31 28 24 21 21 23 25 28 29 30 29 28 28
13 13 14 14 13 13 12 11 10 10 10 11 11 11 11 9 8 7 7 9 10 10 9 6 5 4 3 5 6 7 7 5 9 12 12 8 5 5 7 9 9 8 7 6 6 6 6 5 4 6 8 9 11 12 12 14 17 19 19 19 20 22 24 24 24 25 28 29 29 28 28 30 31 31 30 26 23 21 21 24 27 29 30 30 30 28
14 13 14 14 14 13 12 11 10 10 10 10 10 10 9 8 7 6 7 9 9 9 8 8 6 5 5 7 8 7 4 4 9 13 14 9 5 5 8 10 9 7 5 3 4 4 4 5 6 7 9 10 11 12 13 13 14 16 18 19 20 22 24 25 25 26 27 29 30 29 29 30 31 31 30 28 26 23 21 23 26 29 31 31 30 29
16 16 16 15 15 15 14 13 12 11 10 10 10 9 9 8 7 7 8 8 8 8 8 8 8 7 7 7 6 4 1 4 9 14 15 11 6 7 11 11 10 7 4 1 1 1 2 4 6 9 10 10 11 12 13 14 15 16 17 18 19 22 24 25 26 26 26 28 29 30 29 30 30 31 29 28 27 26 24 25 28 30 32 31 30 29
17 16 16 16 16 16 16 15 14 13 12 12 11 10 10 9 8 8 8 8 8 8 8 8 8 8 7 5 2 1 1 4 9 14 16 12 8 7 12 11 10 9 7 4 1 1 1 1 4 8 10 11 11 12 14 15 16 16 17 17 18 20 23 24 25 26 26 26 28 29 30 30 30 30 29 28 27 27 28 29 31 32 33 33 32 31
15 15 15 15 15 16 15 15 15 14 13 13 13 12 12 11 10 9 9 8 8 8 8 8 8 8 7 5 4 3 3 6 10 14 16 12 8 8 11 10 10 11 9 6 3 1 0 1 2 6 9 10 11 13 14 16 17 18 18 18 18 19 21 23 24 24 24 24 25 28 30 30 29 29 28 27 27 28 30 33 34 34 35 35 35 35
14 13 13 14 14 15 15 15 15 15 14 14 14 14 13 13 12 11 10 9 9 8 8 8 8 8 8 8 7 7 7 10 12 14 14 11 8 7 10 10 12 12 11 8 4 2 1 2 1 3 6 9 11 12 15 17 18 19 20 20 19 18 19 20 20 21 22 21 23 27 29 30 29 28 28 28 29 30 33 35 36 37 38 39 39 39
13 13 13 13 14 14 14 15 15 15 14 15 15 15 15 14 14 13 12 11 10 9 9 9 9 8 9 8 8 9 9 10 11 12 13 11 8 7 10 11 11 11 11 7 5 3 3 3 2 2 4 7 10 12 14 17 19 21 21 20 19 18 18 18 18 18 20 21 23 26 28 29 28 28 28 29 31 32 34 35 36 37 39 41 43 44
13 13 13 13 14 14 14 15 15 15 15 15 15 16 15 15 15 14 13 12 11 10 10 9 9 10 9 9 9 9 9 11 12 12 12 11 9 9 10 9 9 9 9 7 5 3 2 3 4 3 4 5 7 10 13 16 19 20 20 20 19 18 18 18 19 20 21 23 25 27 29 29 30 30 31 31 32 33 34 35 36 38 40 42 45 47
13 13 13 13 14 14 14 15 15 15 15 15 15 16 16 16 16 15 14 13 12 11 10 10 10 10 11 11 11 12 13 14 14 13 12 11 11 9 8 7 8 9 8 8 7 5 2 3 5 6 6 4 4 5 9 14 18 20 20 20 20 19 20 21 23 25 26 28 29 30 31 32 33 33 33 34 34 35 35 36 37 39 41 42 45 48
13 13 14 14 14 14 14 14 14 15 15 15 16 16 16 16 16 16 15 14 13 12 11 10 10 10 10 12 13 14 15 15 14 12 11 11 11 11 10 10 11 12 10 8 8 8 6 3 5 7 7 4 3 4 8 14 19 21 21 22 22 23 24 25 27 30 32 32 33 34 35 35 35 35 36 36 37 37 38 39 41 42 43 44 46 49
14 14 14 14 14 14 14 14 14 15 15 15 16 16 16 16 16 16 15 14 13 12 11 10 10 10 9 10 11 12 12 12 12 11 10 10 11 12 13 14 14 14 12 10 9 10 9 5 3 3 4 4 4 7 11 16 19 20 22 24 26 27 29 30 32 34 36 36 37 37 37 37 37 38 39 40 41 41 41 41 43 44 45 45 46 48
15 15 15 15 15 14 14 14 14 15 15 16 16 16 16 16 15 15 14 13 12 11 11 10 10 9 8 7 7 8 9 10 10 10 10 10 10 12 13 15 15 15 13 12 11 11 11 9 5 4 4 5 6 9 13 16 19 22 24 27 28 29 30 32 35 37 39 39 39 39 39 39 40 41 41 42 43 43 43 42 43 44 45 44 43 43
15 15 15 15 15 14 14 14 15 15 16 15 15 15 15 15 14 14 14 13 12 11 11 10 9 8 7 6 6 6 7 9 10 10 10 10 10 10 12 14 15 14 13 12 11 11 12 9 7 7 10 10 9 9 11 15 20 24 26 25 22 23 28 32 35 38 40 41 41 40 40 41 42 42 42 43 43 44 44 44 44 45 46 45 44 41
15 15 15 15 15 15 15 15 15 15 15 15 14 14 14 14 14 14 14 14 13 12 12 11 10 8 6 5 5 6 8 9 9 9 9 8 8 9 10 12 12 11 11 11 10 8 6 5 7 9 12 14 13 12 12 15 19 22 25 22 21 21 26 30 34 37 40 41 42 41 41 41 41 41 40 41 41 43 45 45 45 45 46 47 47 45
15 15 15 15 15 15 15 15 15 15 14 14 13 13 13 14 14 14 14 14 14 13 13 13 12 11 10 8 7 8 9 10 10 9 7 5 5 7 8 9 9 8 9 9 7 3 3 7 9 10 12 14 14 13 12 13 16 20 23 25 26 25 25 27 31 36 38 39 40 41 40 39 38 37 37 37 38 40 42 43 44 43 43 44 45 46
15 15 15 16 16 15 15 15 15 14 14 13 13 12 13 14 14 13 13 13 13 13 14 13 12 11 11 11 11 11 11 12 12 11 9 5 1 3 5 5 5 5 7 7 4 1 8 11 11 10 12 14 15 14 13 13 15 18 22 27 29 25 18 20 25 31 34 35 36 37 36 36 36 36 37 36 36 37 39 40 41 41 41 40 40 41
15 15 16 16 16 16 15 15 15 14 14 13 13 13 13 14 14 14 13 13 13 13 13 13 12 11 10 11 13 13 13 13 14 13 11 8 4 2 1 2 2 4 6 7 5 3 9 12 12 11 12 14 15 14 14 14 15 17 21 25 28 26 22 21 24 29 31 32 33 34 35 36 38 38 38 38 37 38 38 38 38 38 38 39 39 39
15 16 16 16 16 16 15 15 15 14 14 13 13 14 14 15 15 15 14 13 13 13 13 13 11 10 10 11 12 13 13 14 15 15 15 12 9 7 6 5 4 4 6 6 6 8 11 13 13 13 14 16 16 15 14 15 16 17 17 20 23 25 26 27 29 30 31 32 33 34 36 39 41 41 39 38 37 36 36 37 37 37 37 39 40 41
16 17 17 17 17 16 16 15 15 14 14 14 14 15 16 17 17 16 15 14 14 13 12 12 11 10 10 10 11 12 13 13 14 15 16 15 14 12 11 10 9 9 10 11 13 16 17 17 16 16 17 17 16 15 13 13 14 16 17 20 23 26 27 27 27 28 30 33 34 36 38 41 42 41 38 36 34 34 34 35 35 36 37 38 40 41
17 18 18 17 17 16 16 16 15 15 15 15 16 16 17 18 18 17 16 15 14 13 13 12 12 11 11 11 11 11 11 12 13 13 14 15 15 16 17 16 16 16 18 20 22 23 23 22 20 19 17 16 15 13 12 13 14 15 18 21 24 26 26 24 24 26 30 34 36 37 39 41 40 38 36 35 33 32 31 32 33 34 36 38 39 40
17 17 18 17 17 17 17 17 17 16 16 16 17 17 18 19 18 18 16 16 15 14 13 13 12 12 11 11 12 11 11 11 11 12 12 12 13 16 19 21 22 22 22 24 25 26 26 25 24 22 20 16 13 12 12 12 13 14 16 20 23 24 24 24 25 27 31 34 36 37 38 38 37 36 35 34 32 30 30 30 31 33 35 37 38 39
16 17 17 18 18 17 17 17 17 17 17 17 17 18 18 19 19 18 16 16 15 14 14 13 13 12 12 12 12 12 12 11 11 12 12 11 10 11 14 17 18 19 20 22 25 27 28 27 26 25 23 19 15 13 12 12 12 14 16 19 22 23 25 26 28 30 32 33 33 33 33 34 36 37 37 34 30 29 29 30 31 32 33 35 37 38
17 17 18 18 18 18 17 17 17 17 18 18 17 17 18 19 19 18 17 16 15 14 14 13 13 12 12 12 13 13 13 12 12 12 13 12 9 7 7 8 8 8 10 14 19 23 24 24 24 24 24 22 18 14 12 12 13 15 17 18 20 23 26 27 29 30 31 31 30 30 30 31 33 36 36 33 31 29 29 30 30 31 32 35 37 38
17 18 18 19 19 18 18 18 17 17 18 18 17 17 17 17 18 18 17 17 16 15 14 13 13 13 12 12 13 13 13 13 13 13 14 13 11 7 3 1 3 4 5 6 10 13 14 14 14 17 21 21 19 15 12 11 13 15 15 16 18 22 25 27 28 29 30 30 31 31 31 31 31 32 34 33 31 29 28 28 28 30 31 34 36 36
Wind_Direction
309 309 311 312 313 311 309 309 309 307 305 304 306 309 313 313 312 310 308 304 299 298 297 287 275 273 279 287 293 294 292 305 333 12 106 169 194 210 220 229 238 247 256 260 262 258 247 233 225 219 213 205 201 198 194 193 197 202 202 202 202 203 204 206 206 205 203 199 196 197 200 202 205 209 212 215 216 215 210 207 208 210 209 205 205 207
312 311 312 314 314 312 310 312 313 312 308 305 305 307 310 310 310 311 313 310 305 302 302 294 279 272 275 283 290 295 295 301 318 341 16 140 182 198 208 219 229 240 250 256 259 256 249 238 232 227 217 207 203 201 197 194 196 201 204 204 203 204 204 206 207 206 204 201 199 198 199 200 201 203 207 210 213 214 212 208 209 210 208 203 203 206
314 314 314 316 316 313 312 318 324 326 321 314 309 308 308 309 309 311 315 315 310 302 296 288 279 272 273 280 289 298 304 304 313 326 341 7 172 186 198 210 221 232 244 253 256 254 248 239 235 231 223 211 205 203 200 196 196 201 206 207 207 207 207 207 207 207 205 202 200 199 199 199 199 200 203 206 210 212 209 207 208 210 209 204 202 204
314 314 316 318 316 314 315 324 333 338 337 330 322 318 316 315 313 312 313 314 310 301 292 280 273 270 270 273 278 298 316 313 318 326 332 342 280 187 193 203 214 226 238 248 253 252 246 238 234 232 227 215 207 204 202 199 197 199 205 209 210 211 211 210 209 208 207 204 202 200 200 200 200 201 203 206 209 208 205 203 206 209 210 207 206 206
314 315 317 318 316 315 317 326 335 340 342 341 336 331 332 331 328 322 314 314 311 302 294 283 275 269 263 259 249 166 114 66 333 340 347 353 351 217 187 196 207 219 231 242 249 249 244 238 234 232 228 219 211 206 204 201 199 199 203 208 210 212 213 213 212 211 209 206 204 202 202 201 202 203 205 207 208 205 200 199 202 206 208 208 209 210
315 317 319 318 315 315 318 326 334 340 342 341 338 335 336 340 342 341 338 338 335 323 306 289 276 269 263 263 263 215 120 122 129 139 146 131 74 61 175 191 200 210 222 235 243 245 241 236 234 234 230 221 213 208 205 203 202 201 202 205 207 209 212 213 213 212 210 208 205 203 202 202 202 204 205 206 205 202 197 197 199 202 204 206 208 210
317 320 322 319 316 316 319 326 334 340 342 339 336 335 337 343 347 349 350 352 350 345 334 310 283 269 268 268 267 253 127 123 128 138 148 138 119 104 137 188 196 202 212 224 232 236 235 233 233 234 230 221 213 208 206 205 204 203 202 203 204 206 209 211 212 211 210 207 205 203 202 202 203 204 205 205 204 201 196 195 198 200 201 203 206 208
320 324 325 322 320 320 322 326 334 340 342 338 335 334 337 343 347 349 351 352 352 352 350 347 346 346 293 190 179 163 132 117 123 133 141 138 123 112 119 171 193 198 203 211 218 223 225 227 230 231 227 218 211 207 206 207 207 206 204 203 203 204 205 208 209 209 208 206 204 203 203 203 203 204 204 204 203 201 197 195 197 199 201 203 205 206
324 326 325 324 323 323 324 327 332 337 340 338 336 337 341 345 347 348 349 350 351 352 352 351 355 11 66 113 126 129 126 113 116 126 136 130 116 109 115 152 190 199 199 201 204 209 213 218 223 226 224 216 209 206 206 207 209 208 207 206 204 204 204 205 207 207 206 204 203 203 204 204 204 203 203 202 202 201 199 196 196 198 201 203 205 204
328 328 325 324 324 325 326 326 329 333 336 335 334 341 351 352 349 346 344 344 345 348 348 348 347 355 34 91 116 127 130 122 123 129 138 121 96 98 107 142 187 201 202 198 195 195 200 207 214 217 217 212 208 207 207 208 209 209 210 209 207 204 203 204 205 207 207 205 204 204 205 205 204 203 202 201 201 201 200 198 197 197 200 203 204 202
331 331 328 325 325 326 327 326 327 330 335 336 339 350 4 3 356 347 341 337 338 340 342 343 342 343 355 45 96 115 115 82 124 141 154 158 87 87 100 136 187 203 206 202 196 192 193 198 204 207 207 205 204 205 207 208 207 207 209 210 208 205 203 203 205 208 209 207 206 206 206 206 205 204 203 202 200 200 200 198 197 197 199 201 202 200
333 333 330 327 327 328 331 331 331 334 339 345 351 358 3 2 357 348 338 333 332 332 333 334 335 334 330 334 4 27 11 351 350 19 126 48 48 68 87 122 185 204 209 206 202 197 194 194 197 199 199 196 196 199 202 204 203 203 203 205 205 204 203 204 207 211 212 210 209 208 207 207 206 205 204 203 202 200 199 198 197 197 198 200 200 197
334 334 332 330 330 332 336 339 340 343 348 353 356 356 354 352 350 345 336 329 327 327 325 324 322 318 305 309 327 339 336 329 324 334 46 41 44 58 72 86 148 199 209 210 208 204 199 194 194 195 194 192 193 194 197 200 202 201 198 198 200 202 202 205 209 213 214 213 211 210 209 208 208 207 206 205 203 201 199 197 196 196 197 199 198 195
334 335 335 335 336 337 341 344 346 346 348 350 350 348 345 344 344 341 336 329 326 324 320 315 312 310 308 330 356 0 357 356 2 127 103 72 63 64 70 67 78 179 203 210 212 209 202 196 192 192 193 192 192 193 197 200 202 202 199 196 199 203 205 207 211 214 215 214 212 211 210 209 209 209 208 207 205 203 201 198 196 196 196 197 196 194
334 335 338 339 340 340 343 345 346 345 343 343 342 341 340 341 343 343 338 332 328 326 322 315 310 306 306 3 33 34 41 46 55 80 88 83 76 72 73 66 65 107 185 206 214 211 205 200 194 191 191 190 188 190 195 200 203 202 201 197 199 203 206 209 211 214 214 214 212 211 210 210 210 209 209 208 206 204 201 198 196 194 194 194 193 192
332 334 337 340 339 340 341 342 342 341 339 338 337 337 337 338 341 342 339 333 330 328 327 324 318 309 297 353 6 10 20 23 20 9 6 77 78 71 72 62 55 61 135 189 210 212 208 205 201 198 194 189 184 184 191 199 202 202 202 200 200 202 205 207 210 213 213 212 210 209 208 208 208 208 208 207 206 203 201 198 195 193 191 191 190 189
332 333 336 338 338 337 336 337 339 339 337 335 334 333 331 333 336 338 336 333 331 330 330 328 326 319 309 327 343 352 358 2 360 347 326 304 73 70 66 57 42 37 62 124 189 207 210 208 206 204 200 194 186 182 186 194 200 202 203 204 205 205 204 205 209 212 211 211 208 206 204 204 204 204 204 204 203 201 199 196 193 191 189 188 188 187
331 332 335 337 336 334 332 334 337 338 336 333 330 328 326 327 330 332 332 331 329 326 324 321 316 309 309 309 321 334 341 349 348 336 315 290 261 89 61 51 38 30 40 65 124 185 207 209 208 206 204 198 191 186 186 191 196 201 204 207 209 210 207 206 208 210 210 209 207 203 201 199 198 198 199 199 198 197 195 193 190 189 188 187 187 186
329 330 334 335 334 331 329 330 334 336 334 330 325 322 321 323 326 328 328 326 322 318 313 309 302 296 293 291 300 314 328 338 340 330 310 290 262 188 58 44 34 29 37 51 77 150 190 203 207 207 205 202 197 193 191 192 195 200 205 209 213 215 212 210 209 210 211 209 206 202 198 195 194 193 194 195 194 193 191 189 188 187 187 187 187 187
325 328 332 334 330 326 324 327 332 333 329 324 319 316 316 320 323 324 322 320 316 311 305 299 293 291 291 291 295 305 319 330 333 324 303 287 267 241 44 33 25 17 24 42 54 105 183 195 204 208 207 205 202 199 196 196 197 201 206 210 214 216 215 213 212 212 211 210 206 201 198 194 192 191 191 191 191 190 189 187 187 187 187 188 188 189
323 324 328 330 326 322 321 324 328 329 325 320 316 313 315 320 322 321 319 317 313 308 303 296 292 291 293 293 295 302 316 323 324 315 299 287 273 259 267 13 5 350 354 21 37 58 176 195 201 207 209 209 207 203 200 199 200 202 206 211 215 217 217 216 214 213 212 210 206 202 198 194 191 190 189 189 189 188 187 186 186 187 188 189 190 190
321 320 323 325 323 320 319 322 324 325 323 319 315 315 320 322 320 318 316 314 311 307 303 297 293 291 290 289 293 302 314 314 306 296 289 288 283 274 256 321 336 331 336 357 18 31 62 199 203 205 209 210 210 207 204 203 203 204 207 211 215 217 217 216 216 215 214 212 208 204 200 195 191 189 189 188 188 187 186 185 185 186 188 189 190 190
323 320 321 323 323 322 321 323 324 324 323 320 318 319 322 321 317 313 310 308 305 303 300 297 294 292 291 290 297 306 315 314 304 290 278 277 285 285 281 308 321 323 326 344 360 10 18 199 205 207 210 210 210 210 208 206 205 206 208 212 215 217 217 215 214 215 216 214 211 207 203 197 191 188 187 188 188 187 186 185 185 185 187 188 189 189
327 324 324 325 326 327 327 327 327 326 326 325 324 323 323 321 316 310 304 301 300 301 301 299 297 295 294 296 300 308 320 324 314 290 264 266 276 284 300 310 313 315 324 337 345 351 356 359 207 209 211 210 210 209 209 209 209 209 209 212 215 217 216 213 212 212 214 214 212 209 205 200 193 187 185 185 187 187 187 187 187 187 187 188 188 189
331 329 328 327 328 330 332 332 330 329 329 331 331 330 330 329 325 316 307 304 306 308 308 304 302 301 300 301 303 311 333 338 324 295 262 262 273 283 300 302 306 313 319 325 330 335 340 340 229 204 209 210 209 208 208 210 211 212 212 213 215 217 216 212 208 208 211 212 211 209 206 202 197 190 184 181 182 184 186 188 189 190 190 190 189 189
333 331 330 329 330 332 333 333 331 330 332 334 335 336 337 338 334 326 318 319 321 321 318 314 310 309 310 309 309 320 346 1 353 329 305 298 295 294 298 301 306 314 316 321 325 329 331 327 274 200 203 206 207 206 207 208 211 213 214 214 215 217 217 212 207 205 208 211 211 209 207 205 202 197 191 183 179 179 181 184 188 190 192 192 191 190
336 335 335 335 334 334 336 336 334 334 335 338 339 340 343 346 343 334 329 329 328 327 325 323 321 319 317 313 308 316 334 1 10 2 349 334 315 302 305 313 318 318 318 319 323 326 325 313 267 209 198 201 202 204 206 207 209 212 216 215 215 215 216 214 207 202 204 209 211 210 208 207 206 203 200 194 187 181 180 182 184 188 190 190 190 189
345 343 343 342 341 341 341 342 342 341 341 343 345 347 350 354 351 340 333 331 328 326 324 325 326 326 319 314 307 308 322 357 11 8 8 353 321 297 313 323 324 321 315 312 315 317 312 292 253 216 200 197 198 200 205 209 210 211 213 215 215 214 215 214 208 203 201 206 210 211 209 208 207 206 205 203 199 193 186 182 182 184 186 186 186 185
356 354 353 352 351 351 352 354 354 351 348 347 350 353 357 360 353 338 331 329 326 323 321 322 324 322 315 309 302 298 309 18 16 11 13 1 336 317 327 331 331 326 311 299 303 304 292 268 237 215 202 199 198 200 204 211 213 212 211 212 213 213 213 213 210 204 200 203 208 211 210 208 207 206 205 205 205 202 194 185 181 180 181 181 181 180
354 355 357 358 358 359 0 2 1 359 357 356 357 360 3 2 352 339 332 329 325 321 317 318 319 319 318 314 303 287 275 37 15 7 9 7 353 334 337 336 338 341 341 324 309 309 281 250 227 212 203 203 204 204 206 210 211 209 207 208 209 210 211 211 209 204 199 201 205 209 209 207 206 205 205 205 205 204 198 189 181 176 174 174 174 173
347 349 351 354 356 359 1 1 1 1 1 1 2 3 4 360 351 342 334 328 323 318 314 312 312 315 318 321 313 297 14 19 1 356 1 3 353 336 338 334 335 342 356 357 17 55 358 264 218 208 204 205 208 210 209 208 206 204 202 202 204 207 208 209 207 203 198 199 202 206 207 206 205 204 204 204 203 200 196 189 181 173 168 166 164 163
343 345 346 348 351 354 356 357 357 357 357 358 359 359 358 356 351 343 335 326 319 313 307 305 304 305 307 301 294 292 300 317 330 342 352 353 344 333 337 332 327 331 345 343 331 295 26 328 199 191 199 203 210 212 210 207 205 203 201 200 200 202 204 205 204 201 198 199 202 204 204 204 203 202 201 199 196 192 189 185 178 170 163 159 155 152
343 344 346 347 350 351 353 354 354 354 354 353 353 352 352 351 348 343 335 327 318 309 301 298 298 298 297 291 283 278 282 296 312 329 342 344 338 330 329 327 324 325 333 332 317 282 244 275 239 174 184 193 200 205 204 204 206 206 205 201 199 198 199 199 199 198 198 200 201 201 200 201 200 197 194 190 186 182 180 178 173 166 160 155 150 146
345 346 348 349 350 352 353 354 354 353 352 350 349 348 347 346 344 340 334 328 320 310 298 290 287 289 291 291 285 282 283 291 307 323 331 334 331 322 319 320 321 323 327 328 320 294 247 244 241 192 159 174 184 190 192 197 204 208 207 201 196 193 193 192 191 192 194 195 193 191 191 191 189 186 183 180 177 174 173 173 169 164 160 155 149 144
349 351 352 353 352 353 353 353 353 352 350 348 346 344 343 341 339 336 332 328 322 314 303 291 282 278 279 282 284 285 286 292 305 318 322 322 317 312 313 312 317 323 327 328 325 316 252 225 215 190 144 142 161 173 179 184 192 198 199 195 191 188 186 184 181 180 180 178 176 175 175 173 171 170 170 170 170 170 170 171 168 165 161 158 154 148
353 354 355 354 354 353 352 352 350 349 347 345 343 341 339 337 335 333 330 327 323 317 309 299 288 280 275 273 274 277 283 295 307 317 317 313 307 302 298 297 303 310 318 322 322 318 299 224 200 179 150 126 122 148 159 165 172 177 179 179 178 177 175 173 170 167 164 161 159 157 157 156 156 156 158 160 162 164 166 166 165 162 159 159 156 151
355 355 355 354 353 352 351 350 348 346 343 341 340 338 335 333 331 330 329 329 327 323 316 308 299 290 282 278 276 278 286 298 309 315 313 308 301 291 280 280 288 293 297 304 311 311 303 252 197 173 150 128 120 134 139 143 148 152 154 157 159 159 159 160 160 159 155 151 148 147 146 146 145 144 146 148 150 152 152 152 152 152 151 151 150 148
356 355 354 353 352 350 348 347 345 342 339 337 336 334 333 331 329 329 329 330 330 328 320 314 308 302 296 288 286 289 297 305 312 314 311 304 297 288 277 276 281 285 285 287 292 296 293 268 216 174 139 122 131 141 140 136 133 132 134 140 144 145 146 148 151 151 149 146 143 142 141 140 139 138 138 138 139 139 137 138 139 141 141 140 141 142
355 353 351 350 348 347 345 342 340 337 335 333 333 332 332 330 330 331 332 333 332 330 325 319 314 313 314 311 308 309 315 319 321 320 313 303 293 285 278 275 276 280 285 288 288 285 278 262 235 185 139 128 133 140 141 137 132 127 127 128 131 134 138 141 143 145 145 143 140 138 137 137 136 135 134 135 134 133 132 132 133 135 136 134 134 135
352 350 348 346 345 342 340 337 334 333 332 332 333 334 335 334 334 335 338 338 337 336 335 333 331 330 333 336 341 343 343 341 337 329 318 304 290 279 273 270 271 276 285 290 291 284 272 253 217 169 147 142 142 142 140 137 134 132 129 124 122 125 130 135 137 139 141 141 139 137 135 135 135 134 134 134 134 134 134 134 135 136 137 136 133 132
350 348 345 343 341 340 337 335 334 333 334 334 335 337 339 340 339 339 340 342 343 344 346 348 351 356 4 10 12 12 8 2 355 344 330 310 287 270 262 260 263 271 282 291 296 291 262 205 167 148 141 140 140 139 138 138 137 135 132 129 125 124 127 131 134 136 138 139 138 137 136 134 134 133 133 134 134 136 137 138 137 138 139 140 139 137
349 346 343 341 339 338 336 336 336 338 340 340 340 341 342 344 343 340 340 342 343 346 350 354 357 1 9 20 30 32 28 23 18 11 358 329 284 259 251 248 251 261 276 289 300 313 123 134 134 132 134 136 136 135 135 135 135 133 132 129 126 123 122 126 131 134 135 135 136 136 135 133 132 132 132 131 132 135 137 139 139 139 139 140 141 142
347 344 342 341 340 338 338 339 341 343 344 344 342 343 345 347 347 346 344 343 344 347 351 355 357 0 4 11 19 28 34 36 35 33 30 24 319 242 237 234 237 250 262 273 287 68 105 116 118 119 128 133 134 133 131 127 126 127 129 131 129 125 120 123 128 131 131 132 133 133 133 132 131 130 130 130 132 133 136 137 138 139 140 141 141 142
344 344 343 344 343 344 345 345 345 344 344 343 343 345 348 351 353 352 350 349 349 351 355 358 1 6 9 8 8 12 21 32 40 44 48 55 67 97 157 181 222 247 249 245 236 136 105 103 103 109 122 127 128 128 127 125 124 127 131 133 134 134 134 133 131 129 128 130 131 132 133 133 132 131 130 130 131 133 135 136 137 138 140 141 142 142
347 347 347 348 348 348 347 346 345 343 344 345 347 350 352 355 357 358 357 355 354 356 359 3 7 12 14 10 5 4 8 18 31 41 51 64 82 102 118 129 150 193 214 205 171 129 106 95 94 101 113 118 119 118 120 123 125 127 130 130 130 130 131 132 132 131 130 130 131 132 134 134 133 131 128 127 128 131 133 136 137 139 141 142 143 144
351 351 351 350 350 349 348 346 345 345 347 350 353 355 357 359 0 1 1 359 359 360 3 9 16 20 17 10 5 1 1 4 14 27 42 57 75 95 114 127 141 150 146 131 120 112 105 99 97 99 103 104 104 105 111 117 120 121 123 124 124 124 126 129 131 132 132 132 132 132 134 134 132 129 125 123 123 126 130 133 136 138 140 142 143 144
353 352 352 351 350 349 349 349 349 351 353 355 356 358 359 1 2 1 1 2 2 3 6 13 20 23 22 15 9 3 359 357 1 12 27 45 63 81 98 111 121 124 118 110 106 103 100 98 97 98 98 98 94 92 96 104 111 117 122 123 124 124 125 127 130 133 134 133 133 133 134 133 130 126 123 121 119 120 122 127 131 135 138 140 141 142
352 352 352 351 351 351 351 353 354 355 356 357 358 359 1 3 3 2 2 3 4 6 10 14 18 21 21 17 13 8 3 358 358 4 17 35 56 75 90 99 105 106 105 103 102 101 99 96 92 88 87 88 90 91 93 97 104 114 122 126 126 125 125 127 130 132 132 133 134 135 135 134 131 127 124 120 116 114 116 119 124 129 134 136 138 138
353 353 353 354 354 354 353 355 356 357 358 358 357 358 1 3 5 5 4 4 6 9 12 15 17 18 18 15 13 9 7 3 2 4 11 25 47 72 89 97 100 100 99 100 100 100 99 94 87 81 75 74 77 85 93 98 105 113 120 124 125 125 125 127 130 132 132 132 133 134 135 135 134 132 129 122 116 113 113 115 119 124 128 131 133 134
356 356 357 358 358 357 356 356 356 358 358 358 357 357 359 3 5 7 7 7 9 11 13 15 16 17 16 14 13 11 9 6 4 4 7 15 30 57 90 107 114 116 111 105 101 99 95 88 81 75 70 66 67 74 88 99 108 113 116 119 122 125 126 128 131 132 132 132 132 133 132 132 132 132 129 124 119 115 113 114 116 120 125 128 130 131
358 359 0 1 1 360 358 358 358 358 359 358 358 358 0 3 5 6 8 9 11 12 13 15 17 18 16 15 13 12 11 10 6 2 2 7 13 22 42 157 205 207 183 140 119 109 100 88 76 66 58 57 58 66 84 102 111 113 112 115 120 124 126 128 131 132 132 131 131 131 130 130 130 130 128 125 121 117 115 114 116 120 124 127 128 129